Weather History for Thompson, MB

Change the Weather History Date:

Monday, February 13, 2012

  Actual Average Record
Temperature  
Mean Temperature 10 °F -  
Max Temperature 23 °F 12 °F 23 °F (1999)
Min Temperature -2 °F -8 °F -45 °F (2014)
Degree Days  
Heating Degree Days 54    
Moisture  
Dew Point 5 °F    
Average Humidity 71    
Maximum Humidity 92    
Minimum Humidity 49    
Precipitation  
Precipitation 0.00 in 0.02 in - ()
Sea Level Pressure  
Sea Level Pressure 29.64 in    
Wind  
Wind Speed 3 mph ()    
Max Wind Speed 6 mph    
Max Gust Speed -    
Visibility 15.0 miles    
Events      
Averages and records for this station are not official NWS values.
T = Trace of Precipitation, MM = Missing Value Source: Averaged Metar Reports

Daily Weather History Graph

Daily Weather History Graph

Search for Another Location

Airport:

Trip Planner

Search our weather history database for the weather conditions in past years. The results will help you decide how hot, cold, wet, or windy it might be!

Date:

Astronomy

Feb. 13, 2012 Rise Set
Actual Time 8:01 AM CST 5:30 PM CST
Civil Twilight 7:22 AM CST 6:09 PM CST
Nautical Twilight 6:39 AM CST 6:53 PM CST
Astronomical Twilight 5:56 AM CST 7:36 PM CST
Moon 12:49 AM CST (2/13) 9:36 AM CST (2/13)
Length of Visible Light 10h 47m
Length of Day
9h 29m
Waning Gibbous, 61% of the Moon is Illuminated
Feb 13
Waning Gibbous
Feb 14
Last Quarter
Feb 21
New
Feb 29
First Quarter
Mar 8
Full

Hourly Weather History & Observations

Time (CST) Temp. Windchill Dew Point Humidity Pressure Visibility Wind Dir Wind Speed Gust Speed Precip Events Conditions
12:00 AM 20 °F - 9 °F 50% 29.63 in 15 mi WSW 4.6 mph - -   Overcast
12:00 AM 19.4 °F 11.5 °F 8.6 °F 63% 29.63 in 15.0 mi WSW 5.8 mph - N/A   Overcast
1:00 AM 19.4 °F 14.3 °F 8.6 °F 63% 29.63 in 15.0 mi SW 3.5 mph - N/A   Overcast
2:00 AM 19.4 °F - 8.6 °F 63% 29.63 in 15.0 mi SW 2.3 mph - N/A   Overcast
3:00 AM 19.4 °F - 10.4 °F 68% 29.63 in 15.0 mi Calm Calm - N/A   Overcast
4:00 AM 17.6 °F - 12.2 °F 79% 29.63 in 15.0 mi Calm Calm - N/A   Overcast
5:00 AM 15.8 °F 8.6 °F 8.6 °F 73% 29.64 in 15.0 mi East 4.6 mph - N/A   Overcast
6:00 AM 10 °F - 6 °F 76% 29.65 in 15 mi NE 2.3 mph - -   Scattered Clouds
7:00 AM 6.8 °F -2.0 °F 3.2 °F 85% 29.65 in 15.0 mi NNE 4.6 mph - N/A   Partly Cloudy
8:00 AM 1.4 °F - -0.4 °F 92% 29.64 in 15.0 mi Calm Calm - N/A   Partly Cloudy
9:00 AM 1.4 °F - -2.2 °F 85% 29.65 in 15.0 mi Calm Calm - N/A   Partly Cloudy
10:00 AM 6.8 °F -0.1 °F 1.4 °F 79% 29.65 in 15.0 mi NW 3.5 mph - N/A   Partly Cloudy
11:00 AM 15.8 °F - 6.8 °F 68% 29.65 in 15.0 mi Calm Calm - N/A   Clear
12:00 PM 20 °F - 9 °F 49% 29.64 in 15 mi NW 2.3 mph - -  
12:00 PM 19.4 °F 14.3 °F 8.6 °F 63% 29.64 in 15.0 mi NW 3.5 mph - N/A   Clear
1:00 PM 19.4 °F 11.5 °F 8.6 °F 63% 29.64 in 15.0 mi North 5.8 mph - N/A   Clear
2:00 PM 21.2 °F 14.9 °F 8.6 °F 58% 29.62 in 15.0 mi NW 4.6 mph - N/A   Clear
3:00 PM 21.2 °F - 10.4 °F 63% 29.63 in 15.0 mi North 2.3 mph - N/A   Clear
4:00 PM 21.2 °F 16.4 °F 6.8 °F 54% 29.63 in 15.0 mi North 3.5 mph - N/A   Clear
5:00 PM 17.6 °F 12.3 °F 5.0 °F 58% 29.64 in 15.0 mi North 3.5 mph - N/A   Partly Cloudy
6:00 PM 12 °F - 4 °F 60% 29.65 in 15 mi North 4.6 mph - -  
6:00 PM 12.2 °F 4.3 °F 5.0 °F 73% 29.65 in 15.0 mi North 4.6 mph - N/A   Clear
7:00 PM 6.8 °F - 1.4 °F 79% 29.66 in 15.0 mi Calm Calm - N/A   Clear
8:00 PM 3.2 °F - 1.4 °F 92% 29.65 in 15.0 mi Calm Calm - N/A   Clear
9:00 PM -0.4 °F - -4.0 °F 85% 29.66 in 15.0 mi Calm Calm - N/A   Clear
10:00 PM -2.2 °F - -4.0 °F 92% 29.66 in 15.0 mi Calm Calm - N/A   Clear
11:00 PM -2.2 °F - -4.0 °F 92% 29.66 in 15.0 mi Calm Calm - N/A   Clear